Manhattan, KS

9:45 AM CDT on June 28, 2017 (GMT -0500)
Manhattan Regional

Weather History for KMHK - January, 2014

Change the Weather History Date:

Wednesday, January 15, 2014

  Actual Average Record
Temperature  
Mean Temperature 31 °F 28 °F  
Max Temperature 44 °F 40 °F 66 °F (2012)
Min Temperature 18 °F 17 °F 1 °F (2007)
Degree Days  
Heating Degree Days 34 37  
Month to date heating degree days 597 555  
Since 1 July heating degree days 2872 2696  
Cooling Degree Days 0 0  
Month to date cooling degree days 0 0  
Year to date cooling degree days 0 0  
Moisture  
Dew Point 20 °F    
Average Humidity 61    
Maximum Humidity 77    
Minimum Humidity 45    
Precipitation  
Precipitation 0.00 in 0.02 in 0.43 in (2017)
Month to date precipitation 0.23 0.18  
Year to date precipitation 0.23 0.18  
Sea Level Pressure  
Sea Level Pressure 30.11 in    
Wind  
Wind Speed 5 mph (SSW)    
Max Wind Speed 14 mph    
Max Gust Speed 18 mph    
Visibility 10 miles    
Events      
T = Trace of Precipitation, MM = Missing Value Source: NWS Daily Summary

Daily Weather History Graph

Daily Weather History Graph

Search for Another Location

Airport or City:

Trip Planner

Search our weather history database for the weather conditions in past years. The results will help you decide how hot, cold, wet, or windy it might be!

Date:

Astronomy

Jan. 15, 2014 Rise Set
Actual Time 7:44 AM CST 5:28 PM CST
Civil Twilight 7:15 AM CST 5:57 PM CST
Nautical Twilight 6:42 AM CST 6:30 PM CST
Astronomical Twilight 6:10 AM CST 7:02 PM CST
Moon 5:26 PM CST (1/15) 7:01 AM CST (1/15)
Length of Visible Light 10h 42m
Length of Day
9h 43m
Full, 100% of the Moon is Illuminated
Jan 15
Full
Jan 15
Full
Jan 23
Last Quarter
Jan 30
New
Feb 6
First Quarter

Hourly Weather History & Observations

Time (CST) Temp. Windchill Dew Point Humidity Pressure Visibility Wind Dir Wind Speed Gust Speed Precip Events Conditions
12:52 AM 28.9 °F 22.8 °F 12.0 °F 49% 30.31 in 10.0 mi Variable 5.8 mph - N/A   Scattered Clouds
1:52 AM 28.9 °F 25.2 °F 12.0 °F 49% 30.30 in 10.0 mi Variable 3.5 mph - N/A   Overcast
2:52 AM 28.0 °F - 12.0 °F 51% 30.30 in 10.0 mi Calm Calm - N/A   Overcast
3:52 AM 27.0 °F 23.0 °F 12.0 °F 53% 30.30 in 10.0 mi Variable 3.5 mph - N/A   Mostly Cloudy
4:52 AM 24.1 °F 19.7 °F 12.9 °F 62% 30.30 in 10.0 mi West 3.5 mph - N/A   Mostly Cloudy
5:52 AM 23.0 °F - 15.1 °F 72% 30.30 in 10.0 mi Calm Calm - N/A   Mostly Cloudy
6:52 AM 21.9 °F - 15.1 °F 75% 30.29 in 10.0 mi Calm Calm - N/A   Overcast
7:52 AM 19.0 °F - 14.0 °F 81% 30.28 in 10.0 mi Calm Calm - N/A   Clear
8:52 AM 24.1 °F - 16.0 °F 71% 30.27 in 10.0 mi Calm Calm - N/A   Clear
9:52 AM 28.0 °F 24.2 °F 15.1 °F 58% 30.27 in 10.0 mi South 3.5 mph - N/A   Scattered Clouds
10:52 AM 30.9 °F 27.5 °F 18.0 °F 59% 30.25 in 10.0 mi SSE 3.5 mph - N/A   Scattered Clouds
11:52 AM 33.1 °F 26.9 °F 19.0 °F 56% 30.21 in 10.0 mi SW 6.9 mph - N/A   Overcast
12:52 PM 37.0 °F 30.4 °F 21.0 °F 52% 30.14 in 10.0 mi SW 9.2 mph - N/A   Mostly Cloudy
1:52 PM 39.9 °F 33.9 °F 21.9 °F 49% 30.09 in 10.0 mi SSW 9.2 mph - N/A   Mostly Cloudy
2:52 PM 42.1 °F 37.1 °F 23.0 °F 47% 30.04 in 10.0 mi SSW 8.1 mph - N/A   Overcast
3:52 PM 43.0 °F 38.8 °F 24.1 °F 47% 29.99 in 10.0 mi South 6.9 mph - N/A   Overcast
4:52 PM 43.0 °F 39.5 °F 25.0 °F 49% 29.97 in 10.0 mi South 5.8 mph - N/A   Overcast
5:52 PM 39.9 °F 35.1 °F 24.1 °F 53% 29.94 in 10.0 mi SSW 6.9 mph - N/A   Mostly Cloudy
6:52 PM 42.1 °F 38.4 °F 25.0 °F 51% 29.92 in 10.0 mi South 5.8 mph - N/A   Overcast
7:52 PM 43.0 °F 36.4 °F 26.1 °F 51% 29.89 in 10.0 mi SSW 12.7 mph - N/A   Overcast
8:52 PM 43.0 °F 38.2 °F 27.0 °F 53% 29.86 in 10.0 mi SSW 8.1 mph - N/A   Overcast
9:52 PM 43.0 °F 40.3 °F 27.0 °F 53% 29.84 in 10.0 mi SSW 4.6 mph - N/A   Overcast
10:52 PM 43.0 °F 37.2 °F 27.0 °F 53% 29.83 in 10.0 mi WSW 10.4 mph - N/A   Overcast
11:52 PM 43.0 °F 39.5 °F 28.0 °F 56% 29.83 in 10.0 mi West 5.8 mph - N/A   Mostly Cloudy